WAT65 KSNA-KLAS

Flight info

Callsign WAT65
Flight time 0h 45m
Altitude 29000
Route FINZZ3 MISEN RNDRZ4
Aircraft CL60/M-SADE3FGHIJ3J4J7P2RWXY/HB1D1

Departure

Time 2026-05-08 05:24
Airport John Wayne Orange County International Airport (KSNA)

Arrival

Time 2026-05-08 06:09
Airport Harry Reid International Airport (KLAS)
Time Latitude Longitude Altitude Speed Heading
2026-05-08 04:55 33.67332 -117.87266 57 ft 0 kts 121°
2026-05-08 05:19 33.67329 -117.87260 57 ft 1 kts 120°
2026-05-08 05:19 33.67322 -117.87214 57 ft 9 kts 72°
2026-05-08 05:20 33.67377 -117.87157 56 ft 11 kts 29°
2026-05-08 05:20 33.67459 -117.87104 56 ft 15 kts 28°
2026-05-08 05:20 33.67567 -117.87037 55 ft 19 kts 27°
2026-05-08 05:20 33.67683 -117.86964 54 ft 16 kts 28°
2026-05-08 05:21 33.67796 -117.86891 52 ft 20 kts 28°
2026-05-08 05:21 33.67923 -117.86813 50 ft 17 kts 20°
2026-05-08 05:21 33.68025 -117.86764 49 ft 15 kts 27°
2026-05-08 05:21 33.68121 -117.86704 48 ft 12 kts 27°
2026-05-08 05:22 33.68181 -117.86660 48 ft 7 kts 49°
2026-05-08 05:22 33.68193 -117.86635 48 ft 0 kts 74°
2026-05-08 05:22 33.68194 -117.86631 48 ft 0 kts 78°
2026-05-08 05:22 33.68195 -117.86620 47 ft 2 kts 89°
2026-05-08 05:23 33.68187 -117.86588 47 ft 6 kts 116°
2026-05-08 05:23 33.68163 -117.86536 47 ft 5 kts 131°
2026-05-08 05:23 33.68129 -117.86531 48 ft 0 kts 208°
2026-05-08 05:23 33.68119 -117.86537 48 ft 7 kts 207°
2026-05-08 05:24 33.67813 -117.86729 51 ft 105 kts 208°
2026-05-08 05:24 33.66929 -117.87299 417 ft 169 kts 207°
2026-05-08 05:24 33.65823 -117.88023 1337 ft 194 kts 208°
2026-05-08 05:24 33.64555 -117.88812 2172 ft 217 kts 202°
2026-05-08 05:25 33.63023 -117.89209 2966 ft 244 kts 186°
2026-05-08 05:25 33.61253 -117.89442 3957 ft 267 kts 187°
2026-05-08 05:25 33.59400 -117.89700 4899 ft 277 kts 188°
2026-05-08 05:25 33.57443 -117.90132 5614 ft 297 kts 201°
2026-05-08 05:26 33.55728 -117.91312 6864 ft 289 kts 223°
2026-05-08 05:26 33.54257 -117.92970 7614 ft 293 kts 226°
2026-05-08 05:26 33.52876 -117.94624 8802 ft 282 kts 226°
2026-05-08 05:26 33.51489 -117.96300 10054 ft 289 kts 229°
2026-05-08 05:27 33.50415 -117.98319 11217 ft 297 kts 249°
2026-05-08 05:27 33.50006 -118.00772 12165 ft 312 kts 272°
2026-05-08 05:27 33.50553 -118.03378 12810 ft 335 kts 300°
2026-05-08 05:27 33.52023 -118.05572 13503 ft 352 kts 315°
2026-05-08 05:28 33.53775 -118.07758 14333 ft 367 kts 315°
2026-05-08 05:28 33.55728 -118.09705 15285 ft 373 kts 330°
2026-05-08 05:28 33.58128 -118.10927 16227 ft 378 kts 346°
2026-05-08 05:28 33.60771 -118.11235 16749 ft 385 kts
2026-05-08 05:29 33.63348 -118.10427 16945 ft 385 kts 24°
2026-05-08 05:29 33.65752 -118.09033 16957 ft 382 kts 26°
2026-05-08 05:29 33.68133 -118.07637 16969 ft 379 kts 26°
2026-05-08 05:29 33.70532 -118.06235 16968 ft 377 kts 26°
2026-05-08 05:30 33.72889 -118.04857 16969 ft 377 kts 26°
2026-05-08 05:30 33.75230 -118.03487 16968 ft 377 kts 26°
2026-05-08 05:30 33.77592 -118.02114 17286 ft 373 kts 26°
2026-05-08 05:30 33.79984 -118.00715 17786 ft 389 kts 26°
2026-05-08 05:31 33.82423 -117.99286 18764 ft 392 kts 26°
2026-05-08 05:31 33.84868 -117.97854 19819 ft 392 kts 26°
2026-05-08 05:31 33.87313 -117.96421 20716 ft 395 kts 26°
2026-05-08 05:31 33.89811 -117.94952 21554 ft 399 kts 27°
2026-05-08 05:32 33.92169 -117.93131 22327 ft 404 kts 37°
2026-05-08 05:32 33.94401 -117.91077 23072 ft 408 kts 37°
2026-05-08 05:32 33.96692 -117.88974 23825 ft 413 kts 37°
2026-05-08 05:32 33.98976 -117.86877 24561 ft 417 kts 37°
2026-05-08 05:33 34.01324 -117.84723 25297 ft 421 kts 37°
2026-05-08 05:33 34.03719 -117.82523 25966 ft 426 kts 37°
2026-05-08 05:33 34.06135 -117.80304 26630 ft 430 kts 37°
2026-05-08 05:33 34.08581 -117.78005 26995 ft 438 kts 40°
2026-05-08 05:34 34.10678 -117.75251 27058 ft 442 kts 50°
2026-05-08 05:34 34.12608 -117.72363 27054 ft 439 kts 50°
2026-05-08 05:34 34.14554 -117.69464 27064 ft 436 kts 50°
2026-05-08 05:34 34.16494 -117.66574 27062 ft 435 kts 50°
2026-05-08 05:35 34.18401 -117.63732 27069 ft 435 kts 50°
2026-05-08 05:35 34.20312 -117.60884 27065 ft 435 kts 50°
2026-05-08 05:35 34.22229 -117.58026 27071 ft 435 kts 50°
2026-05-08 05:35 34.24159 -117.55146 27077 ft 434 kts 50°
2026-05-08 05:36 34.26067 -117.52298 27092 ft 434 kts 50°
2026-05-08 05:36 34.27994 -117.49419 27098 ft 435 kts 50°
2026-05-08 05:36 34.29938 -117.46516 27119 ft 435 kts 50°
2026-05-08 05:36 34.31846 -117.43663 27132 ft 435 kts 50°
2026-05-08 05:37 34.33761 -117.40799 27141 ft 438 kts 50°
2026-05-08 05:37 34.35698 -117.37898 27135 ft 441 kts 50°
2026-05-08 05:37 34.37646 -117.34980 27140 ft 441 kts 50°
2026-05-08 05:37 34.39612 -117.32032 27126 ft 442 kts 50°
2026-05-08 05:38 34.41560 -117.29109 27129 ft 443 kts 50°
2026-05-08 05:38 34.43506 -117.26186 27127 ft 443 kts 50°
2026-05-08 05:38 34.45483 -117.23217 27110 ft 443 kts 50°
2026-05-08 05:38 34.47415 -117.20311 27099 ft 443 kts 50°
2026-05-08 05:39 34.49388 -117.17341 27094 ft 443 kts 50°
2026-05-08 05:39 34.51328 -117.14420 27085 ft 444 kts 50°
2026-05-08 05:39 34.53312 -117.11429 27099 ft 443 kts 50°
2026-05-08 05:39 34.55272 -117.08516 27096 ft 443 kts 49°
2026-05-08 05:40 34.57274 -117.05605 27089 ft 443 kts 49°
2026-05-08 05:40 34.59278 -117.02690 27094 ft 443 kts 49°
2026-05-08 05:40 34.61245 -116.99825 27097 ft 443 kts 49°
2026-05-08 05:40 34.63237 -116.96922 27099 ft 443 kts 49°
2026-05-08 05:41 34.65216 -116.94035 27096 ft 443 kts 49°
2026-05-08 05:41 34.67182 -116.91165 27092 ft 443 kts 49°
2026-05-08 05:41 34.69205 -116.88208 27081 ft 443 kts 49°
2026-05-08 05:41 34.71191 -116.85304 27093 ft 443 kts 49°
2026-05-08 05:42 34.73196 -116.82368 27099 ft 444 kts 49°
2026-05-08 05:42 34.75190 -116.79447 27103 ft 444 kts 49°
2026-05-08 05:42 34.77193 -116.76509 27099 ft 444 kts 49°
2026-05-08 05:42 34.79203 -116.73560 27092 ft 444 kts 49°
2026-05-08 05:43 34.81208 -116.70614 27074 ft 444 kts 49°
2026-05-08 05:43 34.83214 -116.67665 27067 ft 443 kts 49°
2026-05-08 05:43 34.85211 -116.64796 27053 ft 442 kts 45°
2026-05-08 05:43 34.87567 -116.62316 27032 ft 441 kts 37°
2026-05-08 05:44 34.90003 -116.59974 27019 ft 441 kts 37°
2026-05-08 05:44 34.92447 -116.57611 27031 ft 441 kts 37°
2026-05-08 05:44 34.94868 -116.55268 27024 ft 441 kts 37°
2026-05-08 05:44 34.97266 -116.52945 27021 ft 441 kts 37°
2026-05-08 05:45 34.99723 -116.50562 27007 ft 441 kts 37°
2026-05-08 05:45 35.02200 -116.48158 27002 ft 441 kts 37°
2026-05-08 05:45 35.04611 -116.45817 27014 ft 441 kts 37°
2026-05-08 05:45 35.07094 -116.43402 26997 ft 441 kts 37°
2026-05-08 05:46 35.09481 -116.41077 26916 ft 442 kts 38°
2026-05-08 05:46 35.11763 -116.38464 26672 ft 444 kts 45°
2026-05-08 05:46 35.13880 -116.35712 26423 ft 443 kts 45°
2026-05-08 05:46 35.16015 -116.32942 26182 ft 443 kts 46°
2026-05-08 05:47 35.18141 -116.30184 25930 ft 443 kts 45°
2026-05-08 05:47 35.20271 -116.27419 25688 ft 444 kts 45°
2026-05-08 05:47 35.22375 -116.24670 25444 ft 444 kts 46°
2026-05-08 05:47 35.24449 -116.21847 25194 ft 445 kts 47°
2026-05-08 05:48 35.26518 -116.19011 24946 ft 446 kts 47°
2026-05-08 05:48 35.28589 -116.16173 24663 ft 447 kts 47°
2026-05-08 05:48 35.30655 -116.13338 24087 ft 445 kts 47°
2026-05-08 05:48 35.32673 -116.10566 23498 ft 431 kts 47°
2026-05-08 05:49 35.34633 -116.07870 22941 ft 418 kts 46°
2026-05-08 05:49 35.36556 -116.05224 22392 ft 406 kts 46°
2026-05-08 05:49 35.38408 -116.02676 21872 ft 395 kts 46°
2026-05-08 05:49 35.40197 -116.00210 21370 ft 385 kts 47°
2026-05-08 05:50 35.41965 -115.97774 20885 ft 375 kts 47°
2026-05-08 05:50 35.43680 -115.95409 20430 ft 365 kts 47°
2026-05-08 05:50 35.45334 -115.93128 19978 ft 361 kts 47°
2026-05-08 05:50 35.47005 -115.90824 19552 ft 362 kts 47°
2026-05-08 05:51 35.48672 -115.88522 19073 ft 359 kts 47°
2026-05-08 05:51 35.50328 -115.86234 18603 ft 357 kts 47°
2026-05-08 05:51 35.51973 -115.83960 18129 ft 354 kts 47°
2026-05-08 05:51 35.53624 -115.81676 17652 ft 351 kts 47°
2026-05-08 05:52 35.55239 -115.79440 17188 ft 349 kts 46°
2026-05-08 05:52 35.56838 -115.77225 16735 ft 346 kts 47°
2026-05-08 05:52 35.58422 -115.75029 16275 ft 343 kts 46°
2026-05-08 05:52 35.60003 -115.72864 15832 ft 340 kts 46°
2026-05-08 05:53 35.61586 -115.70729 15594 ft 335 kts 46°
2026-05-08 05:53 35.63154 -115.68615 15580 ft 335 kts 46°
2026-05-08 05:53 35.64730 -115.66490 15544 ft 341 kts 46°
2026-05-08 05:53 35.66338 -115.64317 15327 ft 338 kts 46°
2026-05-08 05:54 35.67921 -115.62178 15171 ft 336 kts 46°
2026-05-08 05:54 35.69490 -115.60056 15009 ft 335 kts 46°
2026-05-08 05:54 35.71046 -115.57949 14836 ft 334 kts 46°
2026-05-08 05:54 35.72638 -115.55873 14679 ft 332 kts 40°
2026-05-08 05:55 35.74557 -115.54308 14513 ft 330 kts 28°
2026-05-08 05:55 35.76566 -115.52917 14353 ft 328 kts 28°
2026-05-08 05:55 35.78547 -115.51533 14196 ft 328 kts 28°
2026-05-08 05:55 35.80530 -115.50145 14036 ft 326 kts 28°
2026-05-08 05:56 35.82502 -115.48764 13868 ft 325 kts 28°
2026-05-08 05:56 35.84472 -115.47384 13695 ft 325 kts 28°
2026-05-08 05:56 35.86451 -115.45998 13507 ft 325 kts 28°
2026-05-08 05:56 35.88417 -115.44617 13327 ft 324 kts 28°
2026-05-08 05:57 35.90385 -115.43236 13159 ft 323 kts 28°
2026-05-08 05:57 35.92346 -115.41866 12980 ft 323 kts 28°
2026-05-08 05:57 35.94279 -115.40518 12696 ft 323 kts 28°
2026-05-08 05:57 35.96286 -115.39118 12318 ft 322 kts 27°
2026-05-08 05:58 35.98190 -115.37758 12027 ft 314 kts 31°
2026-05-08 05:58 35.99805 -115.35980 11723 ft 310 kts 48°
2026-05-08 05:58 36.00889 -115.33699 11421 ft 309 kts 66°
2026-05-08 05:58 36.01357 -115.31099 11091 ft 311 kts 84°
2026-05-08 05:59 36.01289 -115.28419 10784 ft 307 kts 91°
2026-05-08 05:59 36.01151 -115.25827 10532 ft 302 kts 91°
2026-05-08 05:59 36.01020 -115.23244 10270 ft 297 kts 91°
2026-05-08 05:59 36.00893 -115.20747 10022 ft 291 kts 91°
2026-05-08 06:00 36.00766 -115.18248 9771 ft 285 kts 91°
2026-05-08 06:00 36.00643 -115.15840 9538 ft 280 kts 91°
2026-05-08 06:00 36.00521 -115.13450 9286 ft 274 kts 91°
2026-05-08 06:00 36.00401 -115.11120 9068 ft 268 kts 91°
2026-05-08 06:01 36.00285 -115.08854 8826 ft 264 kts 91°
2026-05-08 06:01 36.00170 -115.06598 8588 ft 259 kts 91°
2026-05-08 06:01 36.00057 -115.04408 8336 ft 255 kts 91°
2026-05-08 06:01 35.99946 -115.02257 8104 ft 250 kts 91°
2026-05-08 06:02 35.99884 -115.00145 8018 ft 238 kts 88°
2026-05-08 06:02 35.99885 -114.98120 8027 ft 236 kts 88°
2026-05-08 06:02 35.99875 -114.96068 7679 ft 246 kts 89°
2026-05-08 06:02 35.99898 -114.93931 7159 ft 254 kts 82°
2026-05-08 06:03 36.00582 -114.91935 6642 ft 256 kts 46°
2026-05-08 06:03 36.02052 -114.90703 6166 ft 257 kts 19°
2026-05-08 06:03 36.03752 -114.90344 5836 ft 243 kts 356°
2026-05-08 06:03 36.05360 -114.90807 5479 ft 228 kts 334°
2026-05-08 06:04 36.06592 -114.91880 5172 ft 215 kts 309°
2026-05-08 06:04 36.07262 -114.93507 5027 ft 212 kts 283°
2026-05-08 06:04 36.07400 -114.95333 4775 ft 215 kts 269°
2026-05-08 06:04 36.07381 -114.97168 4506 ft 211 kts 268°
2026-05-08 06:05 36.07371 -114.98972 4233 ft 211 kts 268°
2026-05-08 06:05 36.07370 -115.00781 3952 ft 210 kts 269°
2026-05-08 06:05 36.07726 -115.02489 3693 ft 212 kts 300°
2026-05-08 06:05 36.08917 -115.03571 3624 ft 219 kts 340°
2026-05-08 06:06 36.10422 -115.03889 3626 ft 221 kts 351°
2026-05-08 06:06 36.11957 -115.04121 3620 ft 221 kts 351°
2026-05-08 06:06 36.13397 -115.04644 3616 ft 207 kts 324°
2026-05-08 06:06 36.14199 -115.06000 3624 ft 193 kts 283°
2026-05-08 06:07 36.14347 -115.07610 3615 ft 175 kts 271°
2026-05-08 06:07 36.14408 -115.09094 3551 ft 172 kts 271°
2026-05-08 06:07 36.14465 -115.10515 3349 ft 160 kts 270°
2026-05-08 06:07 36.14275 -115.11811 3027 ft 146 kts 247°
2026-05-08 06:08 36.13757 -115.12811 2766 ft 133 kts 229°
2026-05-08 06:08 36.13111 -115.13602 2588 ft 130 kts 221°
2026-05-08 06:08 36.12372 -115.14262 2533 ft 129 kts 211°
2026-05-08 06:08 36.11553 -115.14744 2502 ft 133 kts 204°
2026-05-08 06:09 36.10699 -115.15210 2316 ft 134 kts 206°
2026-05-08 06:09 36.09854 -115.15704 2163 ft 134 kts 206°
2026-05-08 06:09 36.09063 -115.16163 2137 ft 111 kts 205°
2026-05-08 06:09 36.08534 -115.16469 2157 ft 31 kts 207°
2026-05-08 06:10 36.08440 -115.16567 2162 ft 16 kts 232°
2026-05-08 06:10 36.08384 -115.16652 2165 ft 10 kts 236°
2026-05-08 06:10 36.08328 -115.16727 2168 ft 9 kts 213°
2026-05-08 06:10 36.08271 -115.16779 2170 ft 11 kts 241°
2026-05-08 06:11 36.08292 -115.16846 2171 ft 11 kts 317°
2026-05-08 06:11 36.08318 -115.16922 2172 ft 8 kts 276°
2026-05-08 06:11 36.08321 -115.16981 2174 ft 4 kts 268°
2026-05-08 06:11 36.08321 -115.16988 2174 ft 0 kts 266°